This demonstration page uses our WeatherBlox Daily Observations layout. Learn more.

Left ArrowRight Arrow

Hourly Observations for December 1, 2015

Temp ( °F °C ) Dew Point ( °F °C ) Humidity (%) Winds ( mph kmh ) Pressure ( in mb ) Visibility ( mi km ) Precip ( " mm )
12:53 am 00:53 Clear 36 2.2 29 -1.7 76 76 N 5 7 30.24 1024 10 16 0.00 0.00
1:53 am 01:53 Clear 33 0.6 28 -2.2 82 82 Calm 30.24 1024 10 16 0.00 0.00
2:53 am 02:53 Clear 31 -0.6 26 -3.3 82 82 Calm 30.24 1024 10 16 0.00 0.00
3:53 am 03:53 Clear 32 0 27 -2.8 82 82 NE 3 6 30.22 1023 10 16 0.00 0.00
4:53 am 04:53 Clear 31 -0.6 26 -3.3 82 82 Calm 30.23 1024 10 16 0.00 0.00
5:53 am 05:53 Clear 31 -0.6 26 -3.3 82 82 Calm 30.24 1024 10 16 0.00 0.00
6:53 am 06:53 Clear 29 -1.7 24 -4.4 82 82 Calm 30.24 1024 10 16 0.00 0.00
7:53 am 07:53 Sunny 32 0 27 -2.8 82 82 Calm 30.24 1024 10 16 0.00 0.00
8:53 am 08:53 Sunny 39 3.9 32 0 76 76 Calm 30.26 1025 10 16 0.00 0.00
9:53 am 09:53 Sunny 45 7.2 35 1.7 68 68 ESE 5 7 30.26 1025 10 16 0.00 0.00
10:53 am 10:53 Sunny 50 10 35 1.7 57 57 SSW 3 6 30.24 1024 10 16 0.00 0.00
11:53 am 11:53 Sunny 57 13.9 33 0.6 41 41 NNE 5 7 30.22 1023 10 16 0.00 0.00
12:53 pm 12:53 Sunny 60 15.6 33 0.6 36 36 N 3 6 30.18 1022 10 16 0.00 0.00
1:53 pm 13:53 Sunny 62 16.7 33 0.6 34 34 Calm 30.16 1021 10 16 0.00 0.00
2:53 pm 14:53 Sunny 61 16.1 34 1.1 36 36 Calm 30.16 1021 10 16 0.00 0.00
3:53 pm 15:53 Sunny 60 15.6 35 1.7 39 39 SSE 6 9 30.16 1021 10 16 0.00 0.00
4:53 pm 16:53 Clear 53 11.7 34 1.1 48 48 SSE 6 9 30.17 1022 8 13 0.00 0.00
5:53 pm 17:53 Hazy 49 9.4 34 1.1 56 56 Calm 30.17 1022 6 10 0.00 0.00
6:53 pm 18:53 Clear 47 8.3 34 1.1 61 61 Calm 30.19 1022 9 14 0.00 0.00
7:53 pm 19:53 Mostly Cloudy 46 7.8 34 1.1 63 63 Calm 30.20 1023 10 16 0.00 0.00
8:53 pm 20:53 Cloudy 46 7.8 36 2.2 68 68 SE 5 7 30.21 1023 10 16 0.00 0.00
9:53 pm 21:53 Cloudy 47 8.3 36 2.2 66 66 Calm 30.22 1023 10 16 0.00 0.00
10:53 pm 22:53 Cloudy 46 7.8 37 2.8 71 71 NNE 5 7 30.24 1024 10 16 0.00 0.00
11:53 pm 23:53 Cloudy with Light Rain 46 7.8 37 2.8 71 71 NNE 3 6 30.25 1024 10 16 0.00 0.03

Powered by AerisWeather